This is the latest recevied weather packets stored in our database for station/object OZ1IEP-5. If no packets are shown the sender has not sent any weather packets the latest 10 day(s).
| Time | Temp. | Humidity | Pressure | Rain* | Wind** | Luminosity | Snow |
|---|---|---|---|---|---|---|---|
| 1778161206 | 13.33° C | 48% | 1015.7 hPa | 0 mm | - | 679 W/m² | - |
| 1778160609 | 13.33° C | 47% | 1015.7 hPa | 0 mm | - | 707 W/m² | - |
| 1778160006 | 13.33° C | 53% | 1015.7 hPa | 0 mm | - | 726 W/m² | - |
| 1778159406 | 13.33° C | 50% | 1015.7 hPa | 0 mm | - | 738 W/m² | - |
| 1778158808 | 13.33° C | 49% | 1015.7 hPa | 0 mm | - | 752 W/m² | - |
| 1778158206 | 13.33° C | 53% | 1015.7 hPa | 0 mm | - | 761 W/m² | - |
| 1778157606 | 13.33° C | 50% | 1015.6 hPa | 0 mm | - | 773 W/m² | - |
| 1778157009 | 13.33° C | 55% | 1015.6 hPa | 0 mm | - | 780 W/m² | - |
| 1778156406 | 12.78° C | 57% | 1015.6 hPa | 0 mm | - | 789 W/m² | - |
| 1778155806 | 12.78° C | 50% | 1015.5 hPa | 0 mm | - | 798 W/m² | - |
| 1778155209 | 13.33° C | 57% | 1015.5 hPa | 0 mm | - | 803 W/m² | - |
| 1778154606 | 12.78° C | 56% | 1015.3 hPa | 0 mm | - | 812 W/m² | - |
| 1778154006 | 12.78° C | 56% | 1015.3 hPa | 0 mm | - | 810 W/m² | - |
| 1778153409 | 12.78° C | 57% | 1015.2 hPa | 0 mm | - | 816 W/m² | - |
| 1778152805 | 12.78° C | 54% | 1015.3 hPa | 0 mm | - | 817 W/m² | - |
| 1778152206 | 12.78° C | 59% | 1015.2 hPa | 0 mm | - | 819 W/m² | - |
| 1778151609 | 12.78° C | 57% | 1015.2 hPa | 0 mm | - | 821 W/m² | - |
| 1778151005 | 12.78° C | 61% | 1015.2 hPa | 0 mm | - | 817 W/m² | - |
| 1778150405 | 12.78° C | 65% | 1015.2 hPa | 0 mm | - | 812 W/m² | - |
| 1778149808 | 12.78° C | 70% | 1015.1 hPa | 0 mm | - | 809 W/m² | - |
| 1778149206 | 12.78° C | 74% | 1015.1 hPa | 0 mm | - | 807 W/m² | - |
| 1778148606 | 12.78° C | 74% | 1015.1 hPa | 0 mm | - | 798 W/m² | - |
| 1778148008 | 12.78° C | 75% | 1015.1 hPa | 0 mm | - | 772 W/m² | - |
| 1778147406 | 12.22° C | 76% | 1015.1 hPa | 0 mm | - | 598 W/m² | - |
| 1778146806 | 12.22° C | 74% | 1015 hPa | 0 mm | - | 758 W/m² | - |
* Rain latest hour (hover to see other rain measurements)
** Current wind speed in m/s (hover to see current wind gust speed)